Simultaneous Nadir Overpasses (SNOs) Predictions

Prediction of SNOs between FY3D and AQUA Satellite Orbit:

Table of predicted SNOs for the next 14.0 days since TLE Epoch: 4/9/2022
Index Date (FY3D) Time (FY3D) Lat,Lon (FY3D) SZA (FY3D ) Date (AQUA) Time (AQUA) Lat,Lon (AQUA) SZA (AQUA ) Distance(km) Time Diff (sec)
1 04/09/2022 14:13:50 -74.71, 138.95 112.93 04/09/2022 14:14:20 -74.71, 138.96 112.94 0.35 30
2 04/09/2022 15:04:07 73.25, -50.09 65.49 04/09/2022 15:03:19 73.25, -50.07 65.49 0.90 48
3 04/12/2022 05:40:49 74.31, 88.27 65.66 04/12/2022 05:41:00 74.32, 88.24 65.66 1.00 11
4 04/12/2022 06:31:05 -72.90,-101.07 115.87 04/12/2022 06:29:58 -72.89,-101.04 115.87 1.20 67
5 04/14/2022 20:17:34 75.44,-134.02 65.96 04/14/2022 20:18:43 75.44,-133.99 65.94 0.73 69
6 04/14/2022 21:07:54 -74.25, 36.67 115.37 04/14/2022 21:07:45 -74.25, 36.72 115.38 1.69 9
7 04/17/2022 11:44:34 -75.14, 175.14 115.33 04/17/2022 11:45:23 -75.14, 175.14 115.34 0.08 49
8 04/17/2022 12:34:54 73.87, -14.13 63.28 04/17/2022 12:34:25 73.87, -14.10 63.28 0.97 29
9 04/20/2022 03:11:40 75.08, 123.58 63.68 04/20/2022 03:12:08 75.07, 123.66 63.66 2.47 28
10 04/20/2022 04:01:45 -73.12, -64.13 118.44 04/20/2022 04:00:56 -73.13, -64.20 118.43 2.40 49
11 04/22/2022 18:38:37 -74.68, 72.96 117.67 04/22/2022 18:38:44 -74.67, 73.01 117.68 1.38 7



Historial Predications of SNOs between FY3D and AQUA
